Flag for U.S.A. Weather past 2 weeks in Philadelphia, Pennsylvania, U.S.A.

Now
61 °F

Sunny.


Feels Like: 61 °F
Forecast: 50 / 75 °F
Wind: 12 mph from Northwest

Location: Philadelphia International Airport

Current Time: May 22, 2015 at 9:39:35 AM

Latest Report: May 22, 2015 at 8:54 AM


Visibility: 10 mi

Pressure: 29.99 "Hg

Humidity: 50%

Dew point: 42 °F

Location of PhiladelphiaLocation

Historic Weather in Philadelphia — Graph

°F

Philadelphia temperature yesterday

Maximum temperature yesterday: 59 °F (at 12:54 AM)
Minimum temperature yesterday: 51 °F (at 3:54 PM)
Average temperature yesterday: 55 °F

Past Weeks' High & Low Weather Summary

 TemperatureHumidityPressure
High86 °F (May 12, 1:54 PM)93% (May 8, 5:54 AM)30.43 "Hg (May 8, 5:54 AM)
Low50 °F (May 14, 4:54 AM)22% (May 14, 4:54 PM)29.80 "Hg (May 12, 6:54 PM)
Average69 °F63%30.11 "Hg
* Reported May 7 7:54 AM — May 22 7:54 AM, Philadelphia, Weather by CustomWeather, © 2015

Note: Actual official high and low records may vary slightly from our data, if they occured in-between our weather recording intervals... More about our weather records

Advertising

Philadelphia weather history for previous 24 hours

 ConditionsComfort  
Time TempWeatherWind HumidityBarometerVisibility
7:54 AM
Fri, May 22
56 °FSunny.9 mph62%29.98 "Hg10 mi
6:54 AM53 °FSunny.10 mph72%29.97 "Hg10 mi
5:54 AM53 °FClear.9 mph72%29.95 "Hg10 mi
4:54 AM53 °FPassing clouds.8 mph74%29.93 "Hg10 mi
3:54 AM53 °FPassing clouds.8 mph77%29.90 "Hg10 mi
2:54 AM53 °FPartly cloudy.6 mph80%29.90 "Hg10 mi
1:54 AM53 °FMostly cloudy.7 mph77%29.91 "Hg10 mi
12:54 AM54 °FMostly cloudy.6 mph77%29.91 "Hg10 mi
11:54 PM
Thu, May 21
54 °FMostly cloudy.5 mph77%29.92 "Hg10 mi
10:54 PM54 °FMostly cloudy.3 mph83%29.91 "Hg7 mi
9:54 PM54 °FMostly cloudy.No wind80%29.93 "Hg10 mi
8:54 PM53 °FMostly cloudy.No wind83%29.94 "Hg10 mi
7:54 PM53 °FMostly cloudy.No wind83%29.94 "Hg10 mi
6:54 PM52 °FMore clouds than sun.3 mph80%29.93 "Hg10 mi
5:54 PM52 °FMore clouds than sun.3 mph80%29.93 "Hg7 mi
5:02 PM51 °FLight rain. Cloudy.3 mph83%29.95 "Hg7 mi
3:54 PM51 °FLight rain. More clouds than sun.5 mph83%29.96 "Hg6 mi
2:54 PM52 °FLight rain. Mostly cloudy.7 mph75%29.98 "Hg5 mi
1:54 PM55 °FLight rain. Mostly cloudy.7 mph74%29.99 "Hg7 mi
12:54 PM56 °FLight rain. Overcast.5 mph70%30.01 "Hg7 mi
11:54 AM57 °FOvercast.5 mph58%30.02 "Hg10 mi
10:54 AM57 °FLight rain. Overcast.No wind53%30.03 "Hg10 mi
9:54 AM57 °FLight rain. Overcast.No wind53%30.02 "Hg10 mi
Weather by CustomWeather, © 2015

See weather overviewHow to use our weather pages